Tracking 17149 objects as of 22-May-2015
HD Live streaming from Space Station

SL-16 R/B

Track SL-16 R/B now!
10-day predictions
SL-16 R/B is classified as:


NORAD ID: 22285
Int'l Code: 1992-093B
Perigee: 845.6 km
Apogee: 853.6 km
Inclination: 71.0 °
Period: 101.8 minutes
Semi major axis: 7220 km
RCS: 8.7386 m2 (large)
Launch date: December 25, 1992
Source: Commonwealth of Independent States (former USSR) (CIS)

Note: This is a ROCKET BODY
Your satellite tracking list
Your tracking list is empty





NASA's NSSDC Master Catalog

Two Line Element Set (TLE):
1 22285U 92093B   15141.12474010 -.00000136  00000-0 -45655-4 0  9994
2 22285 071.0228 002.4732 0005540 226.1683 133.8982 14.14970841155308

Source of the keplerian elements: AFSPC

N2YO: 417